EN

Hourly Weather Ladynka

Today, 25 July, Sunday

Time Temperature Precipitation Wind Pressure Humidity
00:00 +19°C° 0 mm 0 mps 753 mmHg 69%
01:00 +19°C° 0 mm 0 mps 753 mmHg 69%
02:00 +21°C° 0 mm 1 mps 753 mmHg 71%
03:00 +21°C° 0 mm 1 mps 753 mmHg 72%
04:00 +21°C° 0 mm 1 mps 753 mmHg 73%
05:00 +19°C° 0 mm 0 mps 753 mmHg 74%
06:00 +22°C° 0.1 mm 1 mps 753 mmHg 73%
07:00 +22°C° 0.1 mm 1 mps 754 mmHg 72%
08:00 +23°C° 0.1 mm 1 mps 754 mmHg 71%
09:00 +24°C° 0 mm 1 mps 754 mmHg 69%
10:00 +24°C° 0 mm 1 mps 754 mmHg 68%
11:00 +24°C° 0 mm 1 mps 755 mmHg 66%
12:00 +26°C° 0 mm 1 mps 754 mmHg 60%
13:00 +27°C° 0 mm 1 mps 754 mmHg 54%
14:00 +28°C° 0 mm 1 mps 754 mmHg 48%
15:00 +27°C° 0 mm 2 mps 754 mmHg 52%
16:00 +26°C° 0 mm 2 mps 754 mmHg 56%
17:00 +25°C° 0 mm 2 mps 754 mmHg 59%
18:00 +24°C° 0.1 mm 2 mps 755 mmHg 64%
19:00 +23°C° 0.1 mm 2 mps 755 mmHg 69%
20:00 +21°C° 0.1 mm 1 mps 755 mmHg 74%
21:00 +20°C° 0 mm 2 mps 755 mmHg 76%
22:00 +19°C° 0 mm 2 mps 755 mmHg 79%
23:00 +18°C° 0 mm 2 mps 755 mmHg 81%

Tomorrow, 26 July, Monday

Time Temperature Precipitation Wind Pressure Humidity
00:00 +18°C° 0 mm 2 mps 755 mmHg 81%
01:00 +18°C° 0 mm 2 mps 755 mmHg 82%
02:00 +17°C° 0 mm 2 mps 755 mmHg 83%
03:00 +17°C° 0 mm 2 mps 756 mmHg 84%
04:00 +17°C° 0 mm 2 mps 756 mmHg 85%
05:00 +17°C° 0 mm 2 mps 756 mmHg 86%
06:00 +19°C° 0 mm 2 mps 756 mmHg 79%
07:00 +21°C° 0 mm 2 mps 756 mmHg 73%
08:00 +24°C° 0 mm 2 mps 756 mmHg 66%
09:00 +26°C° 0 mm 2 mps 756 mmHg 59%
10:00 +27°C° 0 mm 2 mps 756 mmHg 53%
11:00 +29°C° 0 mm 2 mps 756 mmHg 46%
12:00 +29°C° 0 mm 2 mps 756 mmHg 46%
13:00 +29°C° 0 mm 2 mps 756 mmHg 45%
14:00 +29°C° 0 mm 2 mps 755 mmHg 44%
15:00 +29°C° 0 mm 2 mps 755 mmHg 45%
16:00 +29°C° 0 mm 2 mps 755 mmHg 47%
17:00 +28°C° 0 mm 2 mps 755 mmHg 48%
18:00 +27°C° 0 mm 2 mps 755 mmHg 53%
19:00 +25°C° 0 mm 2 mps 755 mmHg 58%
20:00 +23°C° 0 mm 2 mps 756 mmHg 64%
21:00 +23°C° 0 mm 2 mps 756 mmHg 65%
22:00 +21°C° 0 mm 2 mps 756 mmHg 66%
23:00 +21°C° 0 mm 2 mps 756 mmHg 67%

Day after tomorrow, 27 July, Tuesday

Time Temperature Precipitation Wind Pressure Humidity
00:00 +20°C° 0 mm 2 mps 756 mmHg 69%
01:00 +20°C° 0 mm 2 mps 755 mmHg 71%
02:00 +19°C° 0 mm 3 mps 755 mmHg 73%
03:00 +19°C° 0 mm 3 mps 755 mmHg 72%
04:00 +19°C° 0 mm 3 mps 755 mmHg 71%
05:00 +19°C° 0 mm 3 mps 755 mmHg 71%
06:00 +21°C° 0 mm 3 mps 755 mmHg 64%
07:00 +24°C° 0 mm 3 mps 755 mmHg 58%
08:00 +26°C° 0 mm 4 mps 755 mmHg 52%
09:00 +28°C° 0 mm 4 mps 755 mmHg 47%
10:00 +30°C° 0 mm 4 mps 755 mmHg 42%
11:00 +32°C° 0 mm 4 mps 755 mmHg 37%
12:00 +33°C° 0 mm 5 mps 754 mmHg 36%
13:00 +33°C° 0 mm 5 mps 754 mmHg 34%
14:00 +34°C° 0 mm 5 mps 754 mmHg 33%
15:00 +34°C° 0 mm 5 mps 754 mmHg 35%
16:00 +33°C° 0 mm 4 mps 753 mmHg 37%
17:00 +33°C° 0 mm 4 mps 753 mmHg 39%
18:00 +30°C° 0 mm 4 mps 753 mmHg 44%
19:00 +28°C° 0 mm 4 mps 753 mmHg 49%
20:00 +27°C° 0 mm 3 mps 753 mmHg 53%
21:00 +25°C° 0.1 mm 3 mps 753 mmHg 58%
22:00 +24°C° 0.1 mm 3 mps 753 mmHg 62%
23:00 +22°C° 0.1 mm 3 mps 752 mmHg 66%

28 July, Wednesday

Time Temperature Precipitation Wind Pressure Humidity
00:00 +21°C° 0.1 mm 3 mps 752 mmHg 69%
01:00 +21°C° 0.1 mm 3 mps 752 mmHg 71%
02:00 +21°C° 0.1 mm 3 mps 751 mmHg 73%
03:00 +21°C° 0.1 mm 3 mps 751 mmHg 76%
04:00 +20°C° 0.1 mm 3 mps 751 mmHg 79%
05:00 +20°C° 0.1 mm 3 mps 751 mmHg 82%
06:00 +22°C° 0.2 mm 3 mps 751 mmHg 79%
07:00 +24°C° 0.2 mm 3 mps 751 mmHg 77%
08:00 +25°C° 0.2 mm 4 mps 751 mmHg 75%
09:00 +27°C° 0 mm 4 mps 751 mmHg 69%
10:00 +28°C° 0 mm 4 mps 751 mmHg 63%
11:00 +30°C° 0 mm 4 mps 751 mmHg 58%
12:00 +30°C° 0 mm 4 mps 750 mmHg 53%
13:00 +32°C° 0 mm 4 mps 750 mmHg 49%
14:00 +33°C° 0 mm 5 mps 750 mmHg 45%
15:00 +32°C° 0 mm 4 mps 750 mmHg 45%
16:00 +32°C° 0 mm 4 mps 750 mmHg 44%
17:00 +32°C° 0 mm 4 mps 750 mmHg 44%
18:00 +29°C° 0 mm 3 mps 750 mmHg 50%
19:00 +27°C° 0 mm 2 mps 750 mmHg 56%
20:00 +25°C° 0 mm 2 mps 750 mmHg 62%
21:00 +25°C° 0 mm 2 mps 750 mmHg 64%
22:00 +24°C° 0 mm 1 mps 750 mmHg 66%
23:00 +23°C° 0 mm 1 mps 750 mmHg 68%

29 July, Thursday

Time Temperature Precipitation Wind Pressure Humidity
00:00 +23°C° 0 mm 1 mps 750 mmHg 69%
01:00 +23°C° 0 mm 2 mps 750 mmHg 70%
02:00 +21°C° 0 mm 2 mps 750 mmHg 71%
03:00 +21°C° 0 mm 2 mps 750 mmHg 72%
04:00 +21°C° 0 mm 2 mps 750 mmHg 73%
05:00 +21°C° 0 mm 2 mps 750 mmHg 74%
06:00 +24°C° 0 mm 2 mps 750 mmHg 68%
07:00 +26°C° 0 mm 2 mps 750 mmHg 62%
08:00 +28°C° 0 mm 2 mps 750 mmHg 55%
09:00 +29°C° 0 mm 2 mps 750 mmHg 51%
10:00 +31°C° 0 mm 2 mps 750 mmHg 46%
11:00 +32°C° 0 mm 2 mps 750 mmHg 42%
12:00 +32°C° 0 mm 2 mps 750 mmHg 40%
13:00 +34°C° 0 mm 2 mps 750 mmHg 37%
14:00 +35°C° 0 mm 3 mps 750 mmHg 35%
15:00 +34°C° 0 mm 3 mps 750 mmHg 37%
16:00 +34°C° 0 mm 3 mps 749 mmHg 39%
17:00 +33°C° 0 mm 3 mps 749 mmHg 41%
18:00 +30°C° 0 mm 3 mps 749 mmHg 51%
19:00 +27°C° 0 mm 3 mps 749 mmHg 61%
20:00 +25°C° 0 mm 4 mps 750 mmHg 72%
21:00 +24°C° 0 mm 3 mps 750 mmHg 75%
22:00 +22°C° 0 mm 3 mps 750 mmHg 79%
23:00 +21°C° 0 mm 2 mps 750 mmHg 82%

30 July, Friday

Time Temperature Precipitation Wind Pressure Humidity
00:00 +21°C° 0 mm 2 mps 750 mmHg 84%
01:00 +21°C° 0 mm 1 mps 750 mmHg 86%
02:00 +21°C° 0 mm 1 mps 750 mmHg 88%
03:00 +21°C° 0 mm 1 mps 750 mmHg 88%
04:00 +21°C° 0 mm 1 mps 750 mmHg 89%
05:00 +21°C° 0 mm 1 mps 750 mmHg 89%
06:00 +23°C° 0 mm 1 mps 750 mmHg 80%
07:00 +25°C° 0 mm 1 mps 750 mmHg 71%
08:00 +27°C° 0 mm 1 mps 750 mmHg 62%
09:00 +29°C° 0 mm 1 mps 750 mmHg 57%
10:00 +30°C° 0 mm 2 mps 750 mmHg 51%
11:00 +32°C° 0 mm 2 mps 750 mmHg 46%
12:00 +34°C° 0 mm 2 mps 750 mmHg 42%
13:00 +35°C° 0 mm 2 mps 749 mmHg 39%
14:00 +36°C° 0 mm 2 mps 749 mmHg 35%
15:00 +35°C° 0 mm 2 mps 749 mmHg 36%
16:00 +35°C° 0 mm 2 mps 749 mmHg 36%
17:00 +35°C° 0 mm 2 mps 749 mmHg 37%
18:00 +32°C° 0 mm 2 mps 749 mmHg 43%
19:00 +30°C° 0 mm 1 mps 749 mmHg 48%
20:00 +28°C° 0 mm 1 mps 749 mmHg 54%
21:00 +27°C° 0 mm 1 mps 749 mmHg 56%
22:00 +26°C° 0 mm 1 mps 749 mmHg 59%
23:00 +25°C° 0 mm 1 mps 749 mmHg 61%
Show more